Weather History for Newport Airport, OR

Change the Weather History Date:

Monday, August 6, 2012

  Actual Average Record
Temperature  
Mean Temperature 58 °F -  
Max Temperature 62 °F 62 °F 69 °F (2001)
Min Temperature 55 °F 52 °F 44 °F (2005)
Degree Days  
Heating Degree Days 6    
Growing Degree Days 8 (Base 50)    
Moisture  
Dew Point 54 °F    
Average Humidity 86    
Maximum Humidity 100    
Minimum Humidity 72    
Precipitation  
Precipitation 0.00 in - - ()
Sea Level Pressure  
Sea Level Pressure 30.16 in    
Wind  
Wind Speed 10 mph (SSW)    
Max Wind Speed 15 mph    
Max Gust Speed 21 mph    
Visibility 9 miles    
Events Rain    
Averages and records for this station are not official NWS values.
T = Trace of Precipitation, MM = Missing Value Source: NWS Daily Summary

Daily Weather History Graph

Daily Weather History Graph

Search for Another Location

Airport:

Trip Planner

Search our weather history database for the weather conditions in past years. The results will help you decide how hot, cold, wet, or windy it might be!

Date:

Astronomy

Aug. 06, 2012 Rise Set
Actual Time 6:09 AM PDT 8:34 PM PDT
Civil Twilight 5:36 AM PDT 9:06 PM PDT
Nautical Twilight 4:55 AM PDT 9:47 PM PDT
Astronomical Twilight 4:09 AM PDT 10:32 PM PDT
Moon 10:29 PM PDT (8/6) 11:19 AM PDT (8/6)
Length of Visible Light 15h 30m
Length of Day
14h 25m
Waning Gibbous, 77% of the Moon is Illuminated
Aug 6
Waning Gibbous
Aug 9
Last Quarter
Aug 17
New
Aug 24
First Quarter
Aug 31
Full

Hourly Weather History & Observations

Time (PDT) Temp. Dew Point Humidity Pressure Visibility Wind Dir Wind Speed Gust Speed Precip Events Conditions
12:15 AM 57.2 °F 55.4 °F 94% 30.11 in 7.0 mi South 8.1 mph - N/A   Overcast
12:35 AM 57.2 °F 55.4 °F 94% 30.11 in 5.0 mi South 6.9 mph - N/A   Overcast
12:55 AM 57.2 °F 55.4 °F 94% 30.11 in 7.0 mi South 10.4 mph - N/A   Overcast
1:35 AM 57.2 °F 55.4 °F 94% 30.11 in 4.0 mi South 9.2 mph - N/A   Overcast
1:55 AM 57.2 °F 55.4 °F 94% 30.10 in 7.0 mi SSW 9.2 mph - N/A   Overcast
3:15 AM 55.4 °F 55.4 °F 100% 30.10 in 7.0 mi SSW 9.2 mph - N/A   Overcast
3:35 AM 55.4 °F 55.4 °F 100% 30.11 in 10.0 mi SSW 11.5 mph - N/A   Overcast
3:55 AM 55.4 °F 55.4 °F 100% 30.11 in 7.0 mi South 9.2 mph - N/A   Overcast
4:35 AM 55.4 °F 55.4 °F 100% 30.12 in 3.0 mi SSW 11.5 mph - N/A   Light Drizzle
5:15 AM 55.4 °F 55.4 °F 100% 30.13 in 2.5 mi SSW 12.7 mph - N/A   Light Drizzle
6:55 AM 55.4 °F 55.4 °F 100% 30.14 in 10.0 mi SSW 10.4 mph - N/A   Overcast
7:35 AM 55.4 °F 55.4 °F 100% 30.15 in 10.0 mi SSW 11.5 mph - N/A   Overcast
7:55 AM 55.4 °F 55.4 °F 100% 30.15 in 10.0 mi South 10.4 mph - N/A   Overcast
8:15 AM 55.4 °F 55.4 °F 100% 30.16 in 10.0 mi South 12.7 mph - N/A   Overcast
8:35 AM 55.4 °F 55.4 °F 100% 30.16 in 10.0 mi SSW 10.4 mph - N/A   Overcast
8:55 AM 57.2 °F 55.4 °F 94% 30.16 in 10.0 mi South 10.4 mph - N/A   Overcast
9:15 AM 57.2 °F 53.6 °F 88% 30.16 in 10.0 mi SSW 11.5 mph - N/A   Overcast
9:35 AM 59.0 °F 53.6 °F 82% 30.16 in 10.0 mi SSW 12.7 mph - N/A   Overcast
9:55 AM 59.0 °F 53.6 °F 82% 30.16 in 10.0 mi SSW 11.5 mph 17.3 mph N/A   Overcast
10:15 AM 59.0 °F 53.6 °F 82% 30.16 in 10.0 mi SSW 11.5 mph 17.3 mph N/A   Overcast
10:35 AM 59.0 °F 53.6 °F 82% 30.17 in 10.0 mi SSW 10.4 mph 16.1 mph N/A   Overcast
11:55 AM 60.8 °F 53.6 °F 77% 30.17 in 10.0 mi SSW 15.0 mph 20.7 mph N/A   Mostly Cloudy
12:15 PM 62.6 °F 55.4 °F 77% 30.18 in 10.0 mi SSW 13.8 mph 17.3 mph N/A   Mostly Cloudy
12:35 PM 62.6 °F 53.6 °F 72% 30.18 in 10.0 mi SSW 11.5 mph 19.6 mph N/A   Mostly Cloudy
12:55 PM 62.6 °F 53.6 °F 72% 30.18 in 10.0 mi SW 13.8 mph 18.4 mph N/A   Scattered Clouds
1:15 PM 60.8 °F 53.6 °F 77% 30.18 in 10.0 mi SW 13.8 mph - N/A   Scattered Clouds
1:35 PM 62.6 °F 55.4 °F 77% 30.19 in 10.0 mi SW 11.5 mph - N/A   Mostly Cloudy
1:55 PM 62.6 °F 53.6 °F 72% 30.19 in 10.0 mi SW 12.7 mph 19.6 mph N/A   Mostly Cloudy
2:15 PM 62.6 °F 53.6 °F 72% 30.19 in 10.0 mi SSW 13.8 mph 18.4 mph N/A   Scattered Clouds
2:35 PM 60.8 °F 53.6 °F 77% 30.19 in 10.0 mi SSW 12.7 mph 18.4 mph N/A   Clear
2:55 PM 60.8 °F 53.6 °F 77% 30.19 in 10.0 mi SW 12.7 mph 17.3 mph N/A   Clear
3:15 PM 62.6 °F 53.6 °F 72% 30.19 in 10.0 mi SW 13.8 mph 18.4 mph N/A   Mostly Cloudy
3:35 PM 60.8 °F 53.6 °F 77% 30.19 in 10.0 mi SSW 12.7 mph 18.4 mph N/A   Overcast
3:55 PM 60.8 °F 53.6 °F 77% 30.19 in 10.0 mi SSW 13.8 mph - N/A   Overcast
4:15 PM 60.8 °F 53.6 °F 77% 30.19 in 10.0 mi SW 12.7 mph - N/A   Overcast
4:35 PM 60.8 °F 53.6 °F 77% 30.19 in 10.0 mi SW 11.5 mph - N/A   Overcast
4:55 PM 60.8 °F 53.6 °F 77% 30.19 in 10.0 mi SW 10.4 mph - N/A   Overcast
5:15 PM 60.8 °F 53.6 °F 77% 30.19 in 10.0 mi SSW 10.4 mph - N/A   Overcast
5:35 PM 59.0 °F 53.6 °F 82% 30.19 in 10.0 mi SSW 9.2 mph - N/A   Overcast
5:55 PM 59.0 °F 53.6 °F 82% 30.19 in 10.0 mi SSW 8.1 mph - N/A   Overcast
6:15 PM 59.0 °F 53.6 °F 82% 30.18 in 7.0 mi SSW 9.2 mph - N/A   Overcast
6:35 PM 59.0 °F 53.6 °F 82% 30.18 in 10.0 mi SW 6.9 mph - N/A   Overcast
6:55 PM 59.0 °F 53.6 °F 82% 30.18 in 10.0 mi SSW 5.8 mph - N/A   Overcast
7:15 PM 59.0 °F 53.6 °F 82% 30.17 in 10.0 mi SSW 8.1 mph - N/A   Overcast
7:35 PM 59.0 °F 53.6 °F 82% 30.17 in 7.0 mi SSW 5.8 mph - N/A   Overcast
9:15 PM 55.4 °F 53.6 °F 94% 30.18 in 4.0 mi South 5.8 mph - N/A Rain Rain
9:55 PM 55.4 °F 53.6 °F 94% 30.17 in 7.0 mi Calm Calm - N/A   Overcast
10:15 PM 55.4 °F 53.6 °F 94% 30.17 in 7.0 mi Calm Calm - N/A   Overcast
10:35 PM 55.4 °F 53.6 °F 94% 30.17 in 10.0 mi Calm Calm - N/A   Overcast
10:55 PM 55.4 °F 53.6 °F 94% 30.17 in 10.0 mi Calm Calm - N/A   Overcast
11:15 PM 55.4 °F 53.6 °F 94% 30.16 in 10.0 mi Calm Calm - N/A   Overcast
11:55 PM 57.2 °F 53.6 °F 88% 30.17 in 10.0 mi Calm Calm - N/A   Overcast